This demonstration page uses our WeatherBlox Daily Observations layout. Learn more.

Left ArrowRight Arrow

Hourly Observations for March 7, 2018

Temp ( °F °C ) Dew Point ( °F °C ) Humidity (%) Winds ( mph kmh ) Pressure ( in mb ) Visibility ( mi km ) Precip ( " mm )
12:53 am 00:53 Cloudy 26 -3.3 20 -6.7 78 78 N 12 19 30.31 1026 10 16 0.00 0.00
1:53 am 01:53 Cloudy 25 -3.9 19 -7.2 78 78 N 8 13 30.30 1026 10 16 0.00 0.00
2:53 am 02:53 Cloudy 24 -4.4 19 -7.2 81 81 NW 9 15 30.31 1026 10 16 0.00 0.00
3:32 am 03:32 Partly Cloudy 21 -6 18 -8 86 86 NW 12 19 30.36 1028 10 16 0.00 0.00
3:53 am 03:53 Clear 20 -6.7 16 -8.9 85 85 NW 12 19 30.31 1026 10 16 0.00 0.00
4:53 am 04:53 Clear 19 -7.2 14 -10 81 81 WNW 14 22 30.31 1027 10 16 0.00 0.00
5:53 am 05:53 Clear 19 -7.2 13 -10.6 77 77 WNW 13 20 30.32 1027 10 16 0.00 0.00
6:53 am 06:53 Clear 17 -8.3 13 -10.6 84 84 NW 9 15 30.33 1027 10 16 0.00 0.00
7:53 am 07:53 Sunny 20 -6.7 14 -10 78 78 NW 12 19 30.32 1027 10 16 0.00 0.00
8:53 am 08:53 Sunny 24 -4.4 15 -9.4 68 68 NNW 20 31 30.32 1027 10 16 0.00 0.00
9:53 am 09:53 Sunny 29 -1.7 15 -9.4 56 56 NNW 20 31 30.32 1027 10 16 0.00 0.00
10:53 am 10:53 Sunny 33 0.6 13 -10.6 43 43 NW 18 30 30.30 1026 10 16 0.00 0.00
11:53 am 11:53 Sunny 38 3.3 13 -10.6 36 36 NW 18 30 30.28 1026 10 16 0.00 0.00
12:53 pm 12:53 Sunny 41 5 13 -10.6 32 32 NNW 20 31 30.26 1025 10 16 0.00 0.00
1:53 pm 13:53 Sunny 43 6.1 13 -10.6 29 29 NNW 18 30 30.23 1024 10 16 0.00 0.00
2:53 pm 14:53 Mostly Cloudy 43 6.1 13 -10.6 29 29 NNW 18 30 30.23 1024 10 16 0.00 0.00
3:53 pm 15:53 Partly Cloudy 44 6.7 14 -10 30 30 NNW 25 41 30.23 1024 10 16 0.00 0.00
4:53 pm 16:53 Mostly Sunny 42 5.6 14 -10 32 32 N 21 33 30.24 1024 10 16 0.00 0.00
5:53 pm 17:53 Sunny 38 3.3 13 -10.6 36 36 N 15 24 30.26 1025 10 16 0.00 0.00
6:53 pm 18:53 Clear 31 -0.6 13 -10.6 47 47 NNE 12 19 30.29 1026 10 16 0.00 0.00
7:53 pm 19:53 Clear 28 -2.2 12 -11.1 51 51 N 10 17 30.30 1026 10 16 0.00 0.00
8:53 pm 20:53 Clear 24 -4.4 11 -11.7 57 57 N 7 11 30.30 1026 10 16 0.00 0.00
9:53 pm 21:53 Clear 20 -6.7 10 -12.2 65 65 WNW 6 9 30.30 1026 10 16 0.00 0.00
10:53 pm 22:53 Clear 18 -7.8 10 -12.2 71 71 WNW 7 11 30.30 1026 10 16 0.00 0.00
11:53 pm 23:53 Clear 16 -8.9 9 -12.8 74 74 WNW 7 11 30.29 1026 10 16 0.00 0.00

Powered by AerisWeather